Volver al catálogo

STARLINK-35417

ActivoComunicacionesVLEO
NORAD 66335·PAYLOAD·🇺🇸 United States

Lanzado Nov 6, 2025 desde Cape Canaveral Space Force Station

Loading…

Próximos Pases (próximas 24 horas)

TLE

ActualizadoSource: CelesTrak SupGP

Época: Sep 15, 2026, 02:36 UTC

1 66335C 25253S   26258.10881944 -.00066161  00000+0 -23964-2 0  2583
2 66335  43.0007 222.8103 0001313 272.2890  73.1715 15.27610638    19

Sigue STARLINK-35417 en tiempo real con AllMySat

Download on the App Store